Location: Newark
(44.2003°N, 3.2583°E)
Time: 02:50:52
(UTC+00:00)

FALCON 9 DEB - Pass Details

Date: 26 September 2020
Orbit: 161 x 185 km, 53.0° (Epoch: 28 September)

Event Time Altitude Azimuth Distance (km) Brightness Sun altitude
Exits shadow 04:32:21 17° 341° (NNW) 578 ? -12.7°
Maximum altitude 04:33:14 25° 27° (NNE) 422 ? -12.6°
Drops below altitude 10° 04:34:48 10° 89° (E) 808 ? -12.3°
Sets 04:36:38 0° 104° (ESE) 1,561 ? -12.0°
